x

Columbia River Bar - 20nm West Of Columbia River Mouth (46029) Wave Buoy

11:50 - Thu 29th Sep 2016 All times are PDT. -7 hours from GMT.

  • Sig Wave height 5.2ft
  • Swell Direction
  • Peak Period 11s
  • Average Period 8s
  • Wind
    4mph, 7mph gusts
  • Sea Temp 59°f
  • Luft Temp 57°f
  • Sea Pressure 1018.9mb
  • Columbia River Bar - 20nm West Of Columbia River Mouth
  • Columbia River Bar - 20nm West Of Columbia River Mouth

More Historic Weather Station data

Upgrade to MSW Pro to gain access to the past 30 days of data for over 8000 Wavebouys and Weather Stations around the globe.

Join Pro

Comparision Forecast

View Surf forecast
   
Do 09/29 11:50 5ft 11s 8s 4 7 mph 1018.9mb 59f 57f
10:50 5ft 9s 8s 4 7 mph 1018.8mb 59f 58f
9:50 5ft 10s 7s 7
mph
1019mb 59f 58f
8:50 5ft 9s 7s 7 9 mph 1019.2mb 59f 58f
7:50 4.5ft 9s 7s 7 9 mph 1019.5mb 59f 58f
6:50 4.5ft 8s 6s 7
mph
1019.7mb 59f 59f
5:50 4.5ft 8s 6s 4 7 mph 1019.8mb 59f 58f
4:50 3.5ft 8s 6s 9
mph
1019.7mb 59f 58f
3:50 3.5ft 8s 6s 9
mph
1019.8mb 59f 58f
2:50 4ft 8s 6s 9 11 mph 1020mb 59f 58f
1:50 3.5ft 8s 5s 9 11 mph 1020mb 58f 58f
12:50 3.5ft 8s 5s 11 13 mph 1020mb 58f 57f
11:50 4ft 6s 5s 13
mph
1020.1mb 58f 57f
10:50 4.5ft 6s 5s 16
mph
1019.9mb 58f 57f
9:50 5ft 6s 5s 18 20 mph 1019.4mb 58f 57f
8:50 4.5ft 6s 5s 18 20 mph 1019.4mb 58f 57f
7:50 5ft 6s 5s 20 22 mph 1019.1mb 58f 57f
6:50 6ft 6s 5s 20 27 mph 1018.7mb 58f 56f
5:50 6ft 6s 5s 22 27 mph 1018.3mb 58f 56f
4:50 6ft 7s 5s 22 25 mph 1018.5mb 58f 56f
3:50 6ft 7s 5s 25 29 mph 1018.4mb 58f 56f
2:50 6.5ft 7s 5s 25 27 mph 1018.2mb 58f 56f
1:50 7.5ft 7s 6s 25 29 mph 1018.2mb 58f 56f
12:50 7ft 8s 6s 25 29 mph 1018.1mb 58f 56f
Mi 09/28 11:50 7.5ft 8s 6s 25 29 mph 1018mb 58f 57f
10:50 7ft 8s 6s 25 29 mph 1018.3mb 58f 57f
9:50 6ft 7s 6s 22 29 mph 1018.2mb 58f 57f
8:50 6ft 8s 5s 22 25 mph 1018.1mb 58f 57f
7:50 5.5ft 8s 5s 22 25 mph 1018.1mb 58f 57f
6:50 5.5ft 8s 5s 20 25 mph 1018.2mb 59f 57f
5:50 5.5ft 7s 5s 20 22 mph 1018.5mb 59f 57f
4:50 6ft 8s 6s 20 25 mph 1018.5mb 59f 57f
3:50 6ft 8s 6s 20 22 mph 1018.7mb 58f 57f
2:50 6.5ft 8s 6s 20 22 mph 1018.6mb 58f 57f
1:50 6.5ft 8s 6s 18 22 mph 1018.9mb 57f 57f
12:50 6.5ft 7s 6s 18 20 mph 1019.3mb 57f 56f
11:50 7ft 8s 6s 18 20 mph 1019.4mb 58f 56f
10:50 7ft 8s 6s 18 20 mph 1019.6mb 58f 56f
9:50 7ft 8s 6s 18 20 mph 1019.7mb 58f 56f
8:50 6ft 8s 6s 16 20 mph 1019.7mb 58f 56f
7:50 6ft 8s 6s 18 20 mph 1019.7mb 58f 56f
6:50 6ft 7s 6s 18 20 mph 1019.4mb 58f 56f
5:50 6.5ft 8s 6s 20 22 mph 1019.4mb 58f 57f
4:50 7ft 8s 6s 18 20 mph 1019.3mb 58f 57f
3:50 7ft 8s 6s 18 22 mph 1019.4mb 58f 57f
2:50 6.5ft 8s 6s 18 22 mph 1019.5mb 58f 57f
1:50 7ft 8s 6s 20 22 mph 1019.8mb 58f 57f
12:50 6.5ft 8s 6s 20 22 mph 1019.9mb 58f 57f
Di 09/27 11:50 7ft 10s 6s 20 22 mph 1019.8mb 58f 58f
10:50 7ft 9s 6s 20 25 mph 1020.2mb 58f 58f
9:50 8ft 8s 6s 22 25 mph 1020.2mb 58f 57f
8:50 9ft 10s 6s 20 25 mph 1020.4mb 58f 58f
7:50 8ft 10s 6s 22 27 mph 1020.2mb 58f 58f
6:50 8ft 9s 6s 22 27 mph 1020.2mb 58f 58f
5:50 7.5ft 8s 6s 20 25 mph 1020.6mb 58f 57f
4:50 8ft 8s 6s 22 25 mph 1021mb 58f 57f
3:50 8ft 8s 6s 20 25 mph 1021.8mb 59f 57f
2:50 8.5ft 8s 7s 18 20 mph 1022.3mb 59f 58f
1:50 8ft 11s 6s 20 22 mph 1022.7mb 58f 58f
12:50 8ft 8s 6s 20 22 mph 1023mb 59f 58f
11:50 7.5ft 9s 6s 22 27 mph 1022.9mb 59f 58f
9:50 7ft 8s 6s 22 25 mph 1023mb 59f 58f
8:50 7ft 11s 6s 22 29 mph 1022.8mb 58f 58f
7:50 7ft 11s 6s 20 25 mph 1022.6mb 58f 58f
6:50 6.5ft 10s 6s 22 27 mph 1022.3mb 58f 58f
5:50 6ft 11s 6s 20 29 mph 1022.3mb 59f 59f
4:50 5ft 11s 6s 20 25 mph 1021.9mb 59f 59f
3:50 5.5ft 10s 8s 22 25 mph 1021.7mb 59f 59f
2:50 6ft 11s 8s 4 7 mph 1021.4mb 60f 60f
1:50 6ft 10s 8s 7 9 mph 1021mb 60f 60f
12:50 6ft 11s 8s 7
mph
1021mb 59f 60f
Mo 09/26 11:50 6ft 10s 8s 7 9 mph 1020.7mb 59f 60f
10:50 6ft 10s 8s 4 7 mph 1020.6mb 59f 60f
9:50 6ft 11s 8s 7 11 mph 1020.2mb 59f 61f
8:50 6ft 10s 8s 7 9 mph 1019.9mb 59f 60f
6:50 6ft 10s 8s 7 9 mph 1019.1mb 59f 60f
5:50 6ft 10s 7s 9
mph
1019mb 60f 61f
4:50 5ft 10s 7s 16 18 mph 1019.1mb 60f 60f
3:50 5ft 9s 7s 18 22 mph 1019.1mb 60f 60f
2:50 5ft 10s 7s 16 18 mph 1019mb 60f 61f
1:50 5.5ft 10s 7s 16 18 mph 1019.1mb 59f 61f
12:50 5.5ft 10s 7s 16 18 mph 1018.6mb 58f 60f
11:50 5ft 9s 8s 11 13 mph 1018.5mb 58f 60f
10:50 5ft 9s 7s 9
mph
1018.2mb 58f 60f
9:50 5.5ft 10s 7s 9 11 mph 1018.1mb 58f 60f
8:50 5ft 10s 7s 9 11 mph 1018.1mb 58f 60f